QPF
0.00 0.00 0.00 0.01 0.01 0.02 0.02 0.01 0.01 0.01 0.01 0.01 0.01 0.02 0.02 0.03 0.03 0.03 0.03 0.01 0.01 0.02 0.01 0.01 0.02 0.02 0.02 0.01 0.00 0.00 0.01 0.01 0.00 0.00 0.00 0.00 0.00 0.00 0.00 0.00 0.00 0.00 0.01 0.01 0.01 0.01 0.01 0.01 0.01
0.00 0.00 0.00 0.01 0.00 0.01 0.02 0.01 0.02 0.03 0.01 0.01 0.01 0.01 0.01 0.02 0.02 0.02 0.02 0.01 0.01 0.01 0.01 0.02 0.03 0.03 0.02 0.01 0.01 0.00 0.01 0.01 0.00 0.00 0.00 0.00 0.00 0.00 0.00 0.00 0.00 0.00 0.00 0.01 0.01 0.01 0.01 0.01 0.01
0.00 0.01 0.01 0.00 0.00 0.02 0.04 0.02 0.01 0.02 0.02 0.02 0.02 0.02 0.01 0.02 0.02 0.04 0.04 0.02 0.01 0.00 0.01 0.03 0.03 0.04 0.02 0.02 0.03 0.02 0.01 0.01 0.01 0.01 0.01 0.01 0.01 0.01 0.00 0.00 0.00 0.01 0.01 0.01 0.01 0.01 0.01 0.01 0.01
0.00 0.01 0.01 0.00 0.01 0.02 0.03 0.01 0.02 0.04 0.04 0.04 0.03 0.02 0.01 0.01 0.01 0.02 0.03 0.01 0.00 0.00 0.01 0.02 0.03 0.03 0.04 0.05 0.04 0.03 0.02 0.01 0.01 0.01 0.02 0.02 0.02 0.02 0.02 0.01 0.01 0.01 0.02 0.02 0.01 0.02 0.02 0.01 0.01
0.00 0.00 0.00 0.01 0.02 0.04 0.02 0.01 0.02 0.04 0.07 0.06 0.04 0.02 0.01 0.01 0.03 0.05 0.02 0.01 0.01 0.00 0.01 0.01 0.04 0.04 0.06 0.07 0.06 0.03 0.03 0.03 0.02 0.02 0.03 0.04 0.04 0.04 0.03 0.02 0.01 0.02 0.03 0.02 0.02 0.02 0.02 0.02 0.02
0.00 0.00 0.00 0.01 0.02 0.03 0.02 0.03 0.02 0.01 0.04 0.06 0.04 0.03 0.03 0.02 0.07 0.05 0.02 0.02 0.01 0.01 0.00 0.01 0.03 0.05 0.09 0.09 0.08 0.04 0.04 0.04 0.05 0.04 0.04 0.03 0.04 0.04 0.03 0.01 0.02 0.03 0.02 0.02 0.02 0.03 0.03 0.02 0.02
0.00 0.00 0.00 0.01 0.02 0.02 0.02 0.04 0.03 0.01 0.03 0.04 0.03 0.03 0.04 0.06 0.06 0.03 0.02 0.02 0.01 0.01 0.01 0.01 0.01 0.03 0.06 0.06 0.05 0.05 0.05 0.06 0.10 0.06 0.04 0.02 0.03 0.03 0.04 0.02 0.02 0.03 0.03 0.02 0.02 0.03 0.02 0.02 0.01
0.00 0.00 0.00 0.02 0.02 0.01 0.02 0.02 0.04 0.05 0.05 0.07 0.07 0.03 0.03 0.05 0.05 0.04 0.02 0.03 0.02 0.02 0.01 0.02 0.01 0.01 0.03 0.05 0.06 0.06 0.08 0.10 0.16 0.11 0.06 0.03 0.03 0.02 0.03 0.04 0.03 0.03 0.02 0.02 0.03 0.03 0.02 0.02 0.02
0.00 0.00 0.01 0.02 0.02 0.01 0.01 0.01 0.03 0.11 0.13 0.11 0.10 0.05 0.03 0.02 0.02 0.03 0.03 0.03 0.03 0.02 0.02 0.02 0.02 0.02 0.02 0.04 0.06 0.07 0.10 0.12 0.17 0.13 0.08 0.05 0.03 0.02 0.01 0.02 0.04 0.04 0.03 0.03 0.03 0.04 0.04 0.03 0.02
0.00 0.00 0.00 0.02 0.01 0.01 0.01 0.03 0.03 0.02 0.04 0.04 0.08 0.09 0.06 0.04 0.03 0.03 0.04 0.04 0.04 0.04 0.03 0.03 0.03 0.03 0.02 0.02 0.04 0.06 0.12 0.12 0.13 0.11 0.08 0.05 0.03 0.02 0.01 0.02 0.05 0.06 0.05 0.03 0.03 0.04 0.03 0.03 0.02
0.00 0.00 0.00 0.00 0.00 0.01 0.01 0.01 0.01 0.01 0.03 0.04 0.08 0.05 0.05 0.04 0.05 0.04 0.03 0.04 0.04 0.04 0.05 0.05 0.05 0.05 0.04 0.03 0.04 0.07 0.09 0.09 0.09 0.09 0.07 0.04 0.03 0.03 0.04 0.06 0.05 0.06 0.08 0.05 0.04 0.04 0.03 0.03 0.03
0.00 0.00 0.00 0.00 0.00 0.01 0.03 0.03 0.02 0.03 0.04 0.04 0.03 0.03 0.03 0.03 0.04 0.04 0.02 0.03 0.05 0.07 0.10 0.12 0.09 0.08 0.06 0.05 0.04 0.07 0.08 0.07 0.06 0.05 0.04 0.07 0.08 0.05 0.06 0.05 0.04 0.05 0.08 0.09 0.05 0.03 0.03 0.03 0.04
0.00 0.00 0.00 0.00 0.00 0.00 0.02 0.06 0.05 0.02 0.02 0.04 0.04 0.04 0.03 0.01 0.01 0.02 0.02 0.03 0.04 0.07 0.10 0.13 0.10 0.08 0.07 0.06 0.05 0.05 0.07 0.06 0.04 0.03 0.03 0.04 0.04 0.03 0.04 0.06 0.05 0.05 0.06 0.10 0.10 0.06 0.04 0.03 0.03
0.00 0.00 0.00 0.00 0.00 0.00 0.01 0.02 0.04 0.03 0.03 0.04 0.04 0.02 0.02 0.01 0.02 0.02 0.03 0.03 0.04 0.07 0.09 0.10 0.10 0.10 0.09 0.09 0.09 0.07 0.05 0.04 0.03 0.02 0.02 0.03 0.03 0.02 0.03 0.06 0.05 0.04 0.04 0.05 0.06 0.05 0.04 0.05 0.05
0.00 0.00 0.00 0.00 0.00 0.01 0.01 0.01 0.02 0.05 0.03 0.02 0.02 0.02 0.01 0.01 0.02 0.02 0.05 0.07 0.08 0.10 0.12 0.15 0.10 0.11 0.08 0.06 0.08 0.08 0.05 0.03 0.02 0.01 0.02 0.03 0.03 0.04 0.03 0.03 0.03 0.03 0.03 0.04 0.04 0.04 0.04 0.04 0.04
0.00 0.00 0.00 0.00 0.00 0.01 0.02 0.03 0.04 0.05 0.05 0.06 0.03 0.02 0.02 0.02 0.01 0.02 0.04 0.09 0.09 0.10 0.10 0.15 0.13 0.10 0.09 0.05 0.05 0.07 0.08 0.05 0.03 0.02 0.03 0.03 0.03 0.04 0.03 0.03 0.03 0.04 0.04 0.04 0.04 0.04 0.04 0.03 0.03
0.01 0.00 0.00 0.00 0.00 0.01 0.02 0.02 0.03 0.07 0.06 0.09 0.05 0.05 0.04 0.04 0.03 0.02 0.02 0.05 0.07 0.08 0.10 0.11 0.12 0.08 0.06 0.06 0.05 0.05 0.06 0.06 0.05 0.04 0.04 0.03 0.03 0.03 0.03 0.04 0.05 0.05 0.04 0.04 0.03 0.03 0.04 0.04 0.04
0.01 0.01 0.01 0.01 0.01 0.01 0.02 0.02 0.03 0.06 0.07 0.08 0.07 0.07 0.07 0.06 0.03 0.02 0.02 0.02 0.06 0.08 0.13 0.14 0.12 0.09 0.04 0.04 0.04 0.04 0.04 0.04 0.05 0.05 0.04 0.04 0.03 0.03 0.04 0.04 0.04 0.04 0.05 0.05 0.05 0.05 0.05 0.05 0.05
0.00 0.00 0.01 0.01 0.01 0.01 0.01 0.01 0.02 0.03 0.05 0.04 0.06 0.07 0.07 0.06 0.04 0.03 0.03 0.04 0.06 0.07 0.11 0.17 0.13 0.10 0.06 0.03 0.03 0.03 0.02 0.02 0.03 0.04 0.05 0.04 0.04 0.03 0.04 0.04 0.04 0.05 0.06 0.06 0.06 0.06 0.05 0.05 0.04
0.00 0.00 0.01 0.01 0.01 0.01 0.01 0.01 0.02 0.03 0.05 0.05 0.05 0.05 0.05 0.05 0.06 0.05 0.04 0.04 0.05 0.06 0.06 0.08 0.09 0.10 0.08 0.05 0.03 0.03 0.02 0.03 0.04 0.04 0.03 0.04 0.05 0.05 0.05 0.05 0.06 0.07 0.07 0.06 0.06 0.06 0.05 0.04 0.03
0.01 0.00 0.01 0.00 0.01 0.00 0.01 0.02 0.02 0.03 0.04 0.05 0.04 0.07 0.09 0.09 0.11 0.08 0.05 0.04 0.03 0.04 0.05 0.04 0.04 0.04 0.05 0.05 0.05 0.04 0.04 0.04 0.03 0.04 0.04 0.03 0.04 0.06 0.08 0.09 0.08 0.08 0.09 0.08 0.06 0.04 0.04 0.03 0.02
0.00 0.00 0.00 0.00 0.01 0.00 0.01 0.01 0.02 0.03 0.05 0.05 0.06 0.08 0.11 0.13 0.15 0.13 0.07 0.04 0.04 0.04 0.05 0.05 0.05 0.04 0.04 0.06 0.05 0.04 0.03 0.03 0.03 0.03 0.03 0.04 0.05 0.05 0.08 0.10 0.10 0.10 0.10 0.09 0.07 0.05 0.03 0.03 0.03
0.00 0.00 0.00 0.00 0.00 0.01 0.01 0.02 0.04 0.07 0.08 0.10 0.12 0.13 0.18 0.24 0.16 0.14 0.10 0.06 0.05 0.05 0.08 0.10 0.12 0.09 0.07 0.07 0.05 0.04 0.04 0.04 0.04 0.04 0.04 0.05 0.07 0.09 0.09 0.09 0.11 0.13 0.13 0.11 0.09 0.06 0.04 0.04 0.04
0.00 0.00 0.00 0.00 0.00 0.02 0.02 0.03 0.07 0.12 0.15 0.16 0.15 0.15 0.13 0.16 0.16 0.13 0.09 0.06 0.05 0.04 0.05 0.08 0.11 0.12 0.14 0.11 0.09 0.07 0.05 0.05 0.05 0.05 0.04 0.06 0.06 0.07 0.09 0.09 0.09 0.11 0.13 0.12 0.09 0.06 0.04 0.03 0.03
0.00 0.01 0.01 0.01 0.01 0.02 0.03 0.04 0.06 0.09 0.09 0.09 0.10 0.10 0.08 0.09 0.11 0.11 0.08 0.06 0.06 0.07 0.07 0.09 0.11 0.11 0.14 0.13 0.11 0.07 0.04 0.05 0.04 0.05 0.06 0.06 0.05 0.04 0.05 0.05 0.05 0.06 0.08 0.10 0.09 0.06 0.04 0.03 0.03
0.01 0.01 0.01 0.02 0.03 0.03 0.03 0.07 0.07 0.07 0.07 0.07 0.12 0.12 0.10 0.10 0.10 0.10 0.10 0.07 0.05 0.07 0.09 0.10 0.09 0.10 0.12 0.11 0.08 0.05 0.04 0.04 0.05 0.06 0.05 0.04 0.03 0.03 0.03 0.03 0.03 0.04 0.06 0.07 0.07 0.06 0.05 0.04 0.04
0.01 0.01 0.01 0.01 0.02 0.02 0.03 0.05 0.06 0.07 0.08 0.07 0.10 0.14 0.16 0.11 0.11 0.12 0.11 0.07 0.06 0.07 0.10 0.11 0.09 0.11 0.10 0.09 0.08 0.08 0.09 0.08 0.07 0.06 0.05 0.04 0.02 0.02 0.02 0.02 0.03 0.05 0.05 0.05 0.05 0.05 0.04 0.04 0.03
0.01 0.01 0.01 0.02 0.04 0.05 0.06 0.09 0.11 0.09 0.07 0.07 0.12 0.15 0.17 0.12 0.09 0.09 0.09 0.10 0.10 0.08 0.09 0.10 0.09 0.09 0.11 0.11 0.11 0.10 0.09 0.07 0.05 0.04 0.03 0.02 0.03 0.02 0.02 0.01 0.01 0.02 0.04 0.05 0.05 0.04 0.04 0.03 0.03
0.01 0.01 0.02 0.03 0.05 0.06 0.07 0.10 0.12 0.11 0.09 0.13 0.17 0.19 0.12 0.10 0.07 0.07 0.08 0.10 0.10 0.08 0.05 0.07 0.09 0.09 0.10 0.10 0.10 0.09 0.07 0.06 0.06 0.04 0.02 0.03 0.03 0.02 0.02 0.01 0.02 0.02 0.02 0.03 0.04 0.05 0.05 0.04 0.04
0.00 0.01 0.01 0.03 0.04 0.04 0.05 0.07 0.06 0.08 0.10 0.12 0.13 0.17 0.14 0.08 0.06 0.07 0.13 0.17 0.16 0.10 0.06 0.07 0.07 0.08 0.08 0.08 0.09 0.08 0.06 0.06 0.05 0.05 0.04 0.05 0.05 0.04 0.03 0.03 0.02 0.02 0.02 0.03 0.04 0.04 0.04 0.04 0.04
MSLP
1010.85 1011.87 1013.02 1014.10 1014.95 1015.43 1015.50 1015.21 1014.66 1013.99 1013.35 1012.85 1012.52 1012.37 1012.31 1012.26 1012.12 1011.84 1011.41 1010.89 1010.36 1009.93 1009.68 1009.66 1009.89 1010.31 1010.84 1011.39 1011.88 1012.28 1012.57 1012.77 1012.95 1013.15 1013.41 1013.73 1014.10 1014.50 1014.86 1015.16 1015.37 1015.49 1015.55 1015.58 1015.59 1015.62 1015.67 1015.74 1015.80
1011.48 1012.68 1013.89 1014.90 1015.56 1015.77 1015.52 1014.88 1014.02 1013.09 1012.25 1011.62 1011.23 1011.05 1010.99 1010.97 1010.87 1010.65 1010.31 1009.90 1009.52 1009.25 1009.17 1009.31 1009.67 1010.19 1010.78 1011.36 1011.87 1012.28 1012.58 1012.81 1013.02 1013.25 1013.53 1013.86 1014.22 1014.57 1014.88 1015.12 1015.27 1015.36 1015.41 1015.45 1015.49 1015.56 1015.65 1015.73 1015.79
1012.32 1013.62 1014.82 1015.69 1016.11 1016.00 1015.41 1014.44 1013.29 1012.13 1011.14 1010.42 1009.98 1009.79 1009.76 1009.76 1009.72 1009.58 1009.34 1009.07 1008.83 1008.72 1008.79 1009.07 1009.54 1010.13 1010.76 1011.36 1011.88 1012.29 1012.61 1012.87 1013.12 1013.39 1013.68 1014.01 1014.33 1014.63 1014.86 1015.03 1015.12 1015.18 1015.22 1015.27 1015.36 1015.47 1015.60 1015.71 1015.79
1013.22 1014.54 1015.63 1016.31 1016.45 1016.03 1015.13 1013.89 1012.51 1011.20 1010.13 1009.37 1008.94 1008.78 1008.79 1008.85 1008.87 1008.81 1008.68 1008.53 1008.43 1008.46 1008.67 1009.05 1009.59 1010.21 1010.84 1011.43 1011.94 1012.34 1012.67 1012.96 1013.24 1013.53 1013.85 1014.16 1014.45 1014.68 1014.84 1014.93 1014.97 1014.99 1015.02 1015.10 1015.22 1015.37 1015.54 1015.68 1015.78
1013.99 1015.23 1016.15 1016.58 1016.44 1015.75 1014.60 1013.18 1011.70 1010.35 1009.28 1008.57 1008.21 1008.12 1008.19 1008.32 1008.42 1008.44 1008.41 1008.37 1008.40 1008.54 1008.84 1009.28 1009.85 1010.46 1011.06 1011.60 1012.05 1012.43 1012.75 1013.05 1013.36 1013.67 1014.00 1014.30 1014.55 1014.73 1014.83 1014.86 1014.84 1014.83 1014.86 1014.95 1015.09 1015.28 1015.48 1015.64 1015.74
1014.44 1015.51 1016.20 1016.37 1015.99 1015.09 1013.80 1012.32 1010.85 1009.58 1008.63 1008.05 1007.80 1007.82 1007.98 1008.18 1008.35 1008.45 1008.51 1008.57 1008.69 1008.92 1009.28 1009.75 1010.29 1010.85 1011.38 1011.84 1012.22 1012.54 1012.83 1013.12 1013.44 1013.77 1014.10 1014.40 1014.63 1014.77 1014.83 1014.81 1014.76 1014.72 1014.74 1014.83 1014.98 1015.19 1015.39 1015.56 1015.66
1014.46 1015.30 1015.73 1015.65 1015.07 1014.05 1012.74 1011.32 1009.98 1008.89 1008.14 1007.75 1007.66 1007.80 1008.05 1008.32 1008.54 1008.71 1008.84 1008.99 1009.19 1009.48 1009.87 1010.33 1010.83 1011.31 1011.74 1012.09 1012.38 1012.62 1012.87 1013.14 1013.45 1013.79 1014.13 1014.43 1014.65 1014.78 1014.81 1014.77 1014.70 1014.65 1014.65 1014.73 1014.88 1015.07 1015.26 1015.42 1015.51
1014.08 1014.65 1014.82 1014.53 1013.81 1012.75 1011.50 1010.24 1009.12 1008.28 1007.77 1007.58 1007.66 1007.91 1008.23 1008.55 1008.82 1009.03 1009.21 1009.42 1009.68 1010.02 1010.43 1010.88 1011.32 1011.72 1012.04 1012.28 1012.47 1012.64 1012.83 1013.07 1013.37 1013.71 1014.06 1014.37 1014.60 1014.73 1014.76 1014.71 1014.64 1014.58 1014.58 1014.65 1014.77 1014.94 1015.10 1015.22 1015.28
1013.42 1013.72 1013.64 1013.18 1012.38 1011.36 1010.24 1009.19 1008.32 1007.74 1007.47 1007.47 1007.69 1008.01 1008.37 1008.70 1008.98 1009.21 1009.43 1009.68 1010.00 1010.37 1010.80 1011.24 1011.64 1011.96 1012.20 1012.35 1012.45 1012.55 1012.69 1012.90 1013.18 1013.53 1013.88 1014.21 1014.45 1014.60 1014.65 1014.63 1014.57 1014.52 1014.51 1014.56 1014.66 1014.78 1014.90 1014.97 1015.00
1012.66 1012.72 1012.44 1011.86 1011.03 1010.08 1009.12 1008.29 1007.67 1007.32 1007.24 1007.38 1007.66 1008.01 1008.36 1008.66 1008.92 1009.14 1009.38 1009.67 1010.02 1010.43 1010.88 1011.31 1011.69 1011.97 1012.15 1012.25 1012.30 1012.35 1012.46 1012.65 1012.92 1013.26 1013.63 1013.96 1014.23 1014.41 1014.49 1014.50 1014.47 1014.44 1014.44 1014.47 1014.54 1014.62 1014.69 1014.72 1014.70
1012.00 1011.86 1011.44 1010.78 1009.96 1009.10 1008.29 1007.64 1007.22 1007.03 1007.07 1007.26 1007.55 1007.86 1008.15 1008.39 1008.59 1008.80 1009.04 1009.34 1009.73 1010.17 1010.64 1011.09 1011.46 1011.74 1011.90 1011.98 1012.02 1012.06 1012.17 1012.35 1012.62 1012.96 1013.33 1013.67 1013.96 1014.16 1014.29 1014.34 1014.35 1014.36 1014.37 1014.40 1014.44 1014.48 1014.50 1014.49 1014.43
1011.57 1011.30 1010.77 1010.07 1009.28 1008.50 1007.82 1007.31 1007.00 1006.91 1006.98 1007.15 1007.38 1007.60 1007.79 1007.94 1008.08 1008.25 1008.47 1008.79 1009.19 1009.66 1010.15 1010.62 1011.01 1011.30 1011.49 1011.60 1011.67 1011.74 1011.86 1012.06 1012.34 1012.68 1013.04 1013.38 1013.68 1013.91 1014.07 1014.17 1014.23 1014.27 1014.31 1014.35 1014.38 1014.39 1014.38 1014.32 1014.24
1011.42 1011.05 1010.47 1009.75 1008.99 1008.28 1007.68 1007.26 1007.01 1006.93 1006.97 1007.07 1007.20 1007.31 1007.38 1007.45 1007.52 1007.64 1007.85 1008.16 1008.56 1009.04 1009.54 1010.02 1010.43 1010.76 1011.00 1011.17 1011.30 1011.44 1011.61 1011.84 1012.13 1012.46 1012.81 1013.15 1013.44 1013.69 1013.88 1014.02 1014.12 1014.21 1014.28 1014.33 1014.36 1014.36 1014.32 1014.24 1014.13
1011.46 1011.03 1010.41 1009.70 1008.97 1008.32 1007.78 1007.39 1007.16 1007.06 1007.03 1007.05 1007.07 1007.07 1007.05 1007.04 1007.06 1007.15 1007.33 1007.62 1008.01 1008.46 1008.95 1009.43 1009.86 1010.23 1010.53 1010.78 1011.00 1011.22 1011.47 1011.74 1012.05 1012.38 1012.70 1013.01 1013.29 1013.53 1013.74 1013.91 1014.05 1014.18 1014.28 1014.36 1014.39 1014.39 1014.34 1014.24 1014.12
1011.51 1011.04 1010.41 1009.71 1009.03 1008.43 1007.94 1007.59 1007.36 1007.23 1007.16 1007.10 1007.04 1006.97 1006.89 1006.84 1006.83 1006.90 1007.06 1007.31 1007.66 1008.07 1008.52 1008.97 1009.40 1009.80 1010.16 1010.50 1010.82 1011.14 1011.46 1011.79 1012.12 1012.43 1012.73 1013.00 1013.25 1013.47 1013.67 1013.86 1014.04 1014.20 1014.33 1014.43 1014.47 1014.47 1014.41 1014.31 1014.18
1011.41 1010.90 1010.26 1009.60 1008.97 1008.44 1008.03 1007.73 1007.54 1007.41 1007.32 1007.23 1007.14 1007.04 1006.95 1006.89 1006.88 1006.95 1007.09 1007.30 1007.59 1007.93 1008.31 1008.71 1009.11 1009.53 1009.95 1010.36 1010.79 1011.20 1011.61 1011.99 1012.33 1012.63 1012.89 1013.12 1013.32 1013.51 1013.69 1013.89 1014.08 1014.26 1014.42 1014.54 1014.60 1014.60 1014.54 1014.43 1014.30
1011.02 1010.47 1009.84 1009.24 1008.70 1008.28 1007.98 1007.78 1007.66 1007.59 1007.52 1007.46 1007.38 1007.30 1007.24 1007.20 1007.21 1007.28 1007.40 1007.57 1007.78 1008.04 1008.33 1008.66 1009.03 1009.44 1009.90 1010.39 1010.90 1011.41 1011.89 1012.31 1012.67 1012.96 1013.18 1013.36 1013.50 1013.65 1013.81 1014.00 1014.20 1014.39 1014.57 1014.70 1014.76 1014.76 1014.70 1014.59 1014.46
1010.32 1009.74 1009.16 1008.64 1008.24 1007.98 1007.84 1007.79 1007.79 1007.81 1007.82 1007.81 1007.78 1007.74 1007.71 1007.72 1007.75 1007.82 1007.91 1008.03 1008.17 1008.34 1008.54 1008.80 1009.12 1009.53 1010.01 1010.56 1011.14 1011.73 1012.27 1012.74 1013.11 1013.39 1013.57 1013.69 1013.79 1013.89 1014.02 1014.19 1014.39 1014.59 1014.77 1014.90 1014.97 1014.97 1014.91 1014.80 1014.68
1009.43 1008.84 1008.32 1007.94 1007.72 1007.67 1007.73 1007.88 1008.04 1008.18 1008.28 1008.33 1008.34 1008.33 1008.33 1008.35 1008.40 1008.46 1008.53 1008.60 1008.67 1008.76 1008.89 1009.08 1009.37 1009.76 1010.26 1010.85 1011.50 1012.14 1012.74 1013.24 1013.61 1013.87 1014.02 1014.10 1014.15 1014.21 1014.32 1014.47 1014.65 1014.85 1015.04 1015.17 1015.24 1015.23 1015.17 1015.07 1014.95
1008.52 1007.96 1007.55 1007.36 1007.37 1007.56 1007.87 1008.22 1008.55 1008.81 1008.98 1009.06 1009.08 1009.06 1009.05 1009.05 1009.07 1009.11 1009.14 1009.18 1009.20 1009.24 1009.32 1009.47 1009.73 1010.12 1010.64 1011.26 1011.94 1012.62 1013.25 1013.76 1014.14 1014.38 1014.51 1014.55 1014.57 1014.60 1014.67 1014.81 1014.98 1015.18 1015.35 1015.48 1015.55 1015.55 1015.49 1015.39 1015.30
1007.83 1007.35 1007.10 1007.13 1007.40 1007.86 1008.42 1008.98 1009.45 1009.79 1009.98 1010.03 1009.99 1009.90 1009.81 1009.75 1009.71 1009.71 1009.71 1009.72 1009.73 1009.75 1009.81 1009.95 1010.21 1010.60 1011.12 1011.76 1012.45 1013.15 1013.78 1014.30 1014.67 1014.89 1014.99 1015.01 1015.00 1015.01 1015.07 1015.19 1015.35 1015.54 1015.71 1015.84 1015.90 1015.90 1015.85 1015.77 1015.69
1007.56 1007.20 1007.15 1007.42 1007.97 1008.69 1009.47 1010.19 1010.76 1011.12 1011.26 1011.22 1011.05 1010.83 1010.60 1010.42 1010.31 1010.25 1010.23 1010.24 1010.26 1010.30 1010.39 1010.55 1010.82 1011.21 1011.73 1012.36 1013.04 1013.72 1014.33 1014.83 1015.17 1015.38 1015.46 1015.46 1015.43 1015.43 1015.47 1015.57 1015.72 1015.90 1016.06 1016.19 1016.25 1016.25 1016.21 1016.15 1016.10
1007.80 1007.58 1007.74 1008.26 1009.06 1010.01 1010.97 1011.80 1012.40 1012.72 1012.75 1012.55 1012.20 1011.78 1011.39 1011.07 1010.86 1010.75 1010.73 1010.76 1010.83 1010.93 1011.07 1011.27 1011.56 1011.96 1012.47 1013.06 1013.69 1014.32 1014.88 1015.33 1015.64 1015.81 1015.87 1015.86 1015.82 1015.81 1015.84 1015.93 1016.06 1016.23 1016.38 1016.49 1016.56 1016.57 1016.54 1016.50 1016.47
1008.51 1008.45 1008.80 1009.54 1010.53 1011.66 1012.73 1013.61 1014.18 1014.40 1014.27 1013.88 1013.32 1012.70 1012.13 1011.68 1011.39 1011.25 1011.25 1011.34 1011.49 1011.67 1011.88 1012.14 1012.45 1012.84 1013.31 1013.83 1014.39 1014.93 1015.41 1015.79 1016.05 1016.19 1016.23 1016.20 1016.16 1016.13 1016.15 1016.22 1016.34 1016.48 1016.62 1016.72 1016.78 1016.80 1016.78 1016.76 1016.75
1009.57 1009.64 1010.15 1011.04 1012.17 1013.39 1014.51 1015.37 1015.87 1015.95 1015.65 1015.06 1014.31 1013.51 1012.80 1012.25 1011.92 1011.79 1011.83 1012.01 1012.25 1012.53 1012.83 1013.13 1013.46 1013.82 1014.22 1014.66 1015.11 1015.54 1015.92 1016.21 1016.41 1016.50 1016.52 1016.48 1016.43 1016.39 1016.39 1016.45 1016.54 1016.65 1016.76 1016.84 1016.90 1016.91 1016.91 1016.90 1016.90
1010.78 1010.94 1011.55 1012.52 1013.72 1014.95 1016.05 1016.84 1017.23 1017.17 1016.72 1015.97 1015.07 1014.16 1013.36 1012.78 1012.44 1012.36 1012.49 1012.76 1013.11 1013.49 1013.86 1014.21 1014.53 1014.84 1015.16 1015.48 1015.81 1016.11 1016.38 1016.58 1016.70 1016.76 1016.74 1016.70 1016.63 1016.59 1016.58 1016.60 1016.66 1016.74 1016.82 1016.87 1016.91 1016.92 1016.91 1016.91 1016.91
1011.98 1012.18 1012.82 1013.80 1014.98 1016.16 1017.17 1017.86 1018.14 1017.96 1017.39 1016.55 1015.58 1014.62 1013.81 1013.25 1012.97 1012.97 1013.20 1013.58 1014.03 1014.50 1014.92 1015.28 1015.58 1015.83 1016.05 1016.25 1016.45 1016.62 1016.77 1016.89 1016.95 1016.96 1016.93 1016.87 1016.80 1016.75 1016.72 1016.71 1016.74 1016.77 1016.81 1016.83 1016.84 1016.83 1016.82 1016.81 1016.80
1013.05 1013.25 1013.86 1014.78 1015.87 1016.94 1017.83 1018.40 1018.56 1018.30 1017.67 1016.80 1015.84 1014.91 1014.17 1013.68 1013.50 1013.60 1013.93 1014.40 1014.94 1015.46 1015.91 1016.27 1016.53 1016.70 1016.83 1016.92 1016.99 1017.06 1017.11 1017.15 1017.16 1017.14 1017.09 1017.03 1016.95 1016.89 1016.84 1016.80 1016.79 1016.78 1016.77 1016.76 1016.74 1016.71 1016.67 1016.64 1016.62
1013.98 1014.14 1014.68 1015.49 1016.44 1017.37 1018.11 1018.55 1018.62 1018.30 1017.67 1016.84 1015.94 1015.11 1014.47 1014.10 1014.03 1014.23 1014.64 1015.18 1015.76 1016.30 1016.75 1017.08 1017.29 1017.40 1017.44 1017.44 1017.42 1017.40 1017.39 1017.37 1017.34 1017.30 1017.25 1017.18 1017.10 1017.03 1016.96 1016.90 1016.84 1016.80 1016.75 1016.70 1016.64 1016.58 1016.52 1016.47 1016.41
1014.86 1014.98 1015.42 1016.10 1016.89 1017.64 1018.22 1018.54 1018.52 1018.18 1017.57 1016.81 1016.01 1015.31 1014.79 1014.54 1014.56 1014.84 1015.30 1015.86 1016.44 1016.97 1017.39 1017.68 1017.84 1017.90 1017.88 1017.82 1017.75 1017.68 1017.62 1017.57 1017.52 1017.47 1017.41 1017.34 1017.26 1017.17 1017.09 1017.00 1016.91 1016.83 1016.75 1016.67 1016.58 1016.49 1016.40 1016.31 1016.21
Thickness
5799 5799 5797 5786 5763 5744 5747 5771 5792 5797 5802 5814 5818 5813 5804 5798 5790 5783 5807 5815 5811 5805 5801 5797 5795 5792 5789 5787 5784 5781 5778 5775 5773 5770 5768 5765 5763 5760 5758 5756 5753 5751 5749 5747 5745 5743 5742 5740 5739
5798 5797 5788 5771 5746 5732 5747 5779 5790 5799 5809 5817 5816 5813 5806 5801 5809 5806 5808 5811 5810 5804 5800 5796 5794 5791 5787 5784 5781 5778 5776 5773 5770 5767 5765 5762 5760 5757 5755 5753 5750 5748 5746 5744 5742 5740 5739 5737 5736
5797 5795 5774 5755 5743 5739 5757 5785 5794 5806 5817 5816 5809 5811 5805 5802 5809 5808 5811 5810 5806 5802 5798 5795 5792 5789 5786 5782 5778 5775 5773 5770 5767 5764 5762 5759 5757 5754 5752 5749 5747 5745 5743 5741 5739 5738 5736 5734 5733
5790 5778 5765 5747 5746 5761 5774 5790 5801 5803 5810 5815 5809 5799 5804 5815 5815 5813 5812 5808 5803 5798 5795 5793 5790 5787 5783 5779 5776 5773 5770 5767 5764 5761 5759 5756 5754 5751 5749 5746 5744 5742 5740 5738 5737 5735 5733 5731 5730
5782 5764 5748 5739 5752 5773 5790 5800 5804 5801 5801 5806 5805 5791 5793 5810 5818 5814 5809 5805 5800 5795 5792 5790 5787 5784 5781 5777 5773 5770 5767 5764 5761 5758 5755 5752 5750 5748 5746 5743 5741 5739 5737 5735 5733 5732 5730 5729 5727
5765 5753 5735 5733 5754 5777 5793 5803 5803 5800 5800 5805 5801 5791 5791 5805 5808 5807 5807 5803 5799 5794 5790 5786 5784 5781 5777 5774 5770 5767 5764 5761 5757 5754 5752 5749 5747 5745 5742 5740 5738 5736 5734 5732 5730 5729 5727 5725 5724
5757 5745 5737 5745 5754 5769 5790 5803 5801 5798 5798 5803 5806 5790 5789 5798 5804 5805 5802 5799 5795 5791 5787 5783 5780 5777 5774 5771 5767 5764 5761 5757 5754 5751 5748 5745 5743 5741 5739 5736 5734 5732 5730 5729 5727 5725 5724 5722 5721
5768 5749 5744 5748 5756 5767 5793 5801 5805 5803 5802 5813 5810 5789 5784 5796 5803 5802 5798 5793 5789 5786 5783 5780 5777 5774 5771 5767 5764 5761 5757 5754 5751 5748 5744 5741 5739 5737 5735 5733 5731 5729 5727 5725 5724 5722 5721 5719 5717
5775 5743 5735 5751 5761 5773 5794 5797 5803 5811 5808 5808 5808 5803 5803 5804 5800 5793 5788 5783 5781 5780 5778 5777 5773 5770 5767 5764 5761 5758 5754 5751 5747 5744 5741 5738 5735 5733 5731 5729 5727 5725 5724 5722 5720 5718 5717 5715 5714
5764 5739 5752 5773 5780 5784 5792 5796 5800 5799 5795 5795 5797 5802 5805 5801 5794 5786 5781 5777 5775 5774 5774 5773 5770 5767 5763 5761 5758 5754 5751 5748 5744 5741 5738 5735 5732 5729 5728 5726 5723 5722 5720 5718 5716 5714 5713 5711 5710
5767 5758 5773 5784 5793 5793 5791 5795 5803 5793 5784 5790 5791 5793 5796 5793 5788 5782 5779 5778 5776 5774 5772 5769 5767 5764 5760 5757 5754 5751 5748 5745 5742 5738 5736 5732 5729 5726 5724 5721 5719 5717 5715 5714 5712 5710 5709 5708 5706
5772 5778 5784 5789 5797 5793 5791 5794 5794 5793 5793 5803 5801 5797 5792 5787 5782 5779 5776 5775 5773 5771 5769 5767 5765 5761 5757 5754 5751 5748 5745 5742 5739 5737 5734 5730 5726 5723 5721 5718 5716 5713 5711 5710 5708 5707 5706 5704 5702
5775 5780 5791 5797 5796 5795 5795 5792 5791 5790 5800 5802 5798 5791 5786 5782 5779 5778 5776 5773 5771 5768 5765 5763 5761 5758 5754 5751 5748 5745 5742 5739 5737 5734 5731 5727 5723 5720 5717 5715 5712 5710 5708 5705 5704 5703 5702 5700 5698
5781 5785 5790 5795 5796 5798 5791 5789 5788 5786 5796 5793 5789 5785 5782 5780 5777 5774 5770 5768 5767 5765 5763 5761 5757 5755 5752 5748 5744 5740 5738 5735 5733 5730 5727 5724 5721 5718 5715 5712 5710 5707 5705 5702 5700 5699 5697 5695 5694
5787 5778 5781 5789 5793 5793 5789 5774 5780 5789 5790 5784 5782 5781 5779 5777 5775 5772 5770 5768 5766 5763 5760 5757 5755 5752 5748 5745 5741 5738 5735 5732 5729 5727 5724 5721 5718 5715 5712 5709 5706 5704 5701 5699 5697 5694 5692 5690 5689
5774 5763 5755 5778 5788 5791 5777 5755 5778 5786 5783 5777 5777 5776 5772 5770 5772 5771 5770 5766 5764 5761 5758 5755 5753 5748 5745 5742 5739 5736 5732 5729 5726 5723 5720 5718 5715 5712 5708 5705 5703 5700 5698 5695 5692 5689 5687 5685 5684
5750 5740 5746 5765 5784 5785 5771 5757 5775 5783 5779 5773 5773 5772 5769 5765 5766 5767 5767 5765 5762 5758 5755 5752 5748 5745 5742 5739 5736 5732 5728 5724 5722 5719 5716 5714 5711 5709 5706 5702 5699 5696 5693 5690 5688 5685 5682 5679 5678
5736 5740 5746 5753 5773 5776 5762 5758 5770 5777 5774 5769 5769 5767 5763 5760 5760 5763 5762 5761 5757 5754 5751 5747 5744 5741 5738 5734 5730 5726 5722 5720 5718 5716 5713 5711 5708 5705 5702 5699 5695 5692 5688 5685 5682 5680 5677 5675 5672
5752 5747 5744 5758 5775 5767 5756 5754 5760 5767 5765 5763 5762 5760 5758 5756 5758 5758 5757 5755 5752 5748 5745 5741 5738 5735 5732 5728 5724 5720 5716 5715 5713 5712 5710 5708 5705 5702 5698 5695 5691 5688 5684 5681 5678 5674 5671 5668 5666
5754 5744 5745 5758 5773 5764 5750 5748 5754 5758 5758 5759 5757 5754 5753 5752 5751 5751 5751 5750 5746 5742 5739 5737 5734 5731 5729 5726 5723 5719 5715 5711 5709 5708 5706 5704 5701 5698 5694 5690 5687 5684 5680 5676 5672 5668 5664 5662 5660
5752 5745 5746 5749 5759 5759 5747 5735 5741 5748 5753 5753 5753 5751 5750 5749 5746 5743 5744 5743 5741 5737 5734 5733 5730 5727 5725 5723 5718 5715 5710 5706 5703 5701 5699 5699 5697 5694 5690 5686 5683 5680 5675 5671 5668 5664 5660 5655 5654
5741 5758 5758 5753 5737 5725 5734 5707 5723 5733 5737 5741 5742 5742 5742 5742 5740 5738 5738 5736 5735 5733 5731 5729 5726 5724 5721 5718 5714 5709 5704 5700 5698 5697 5695 5693 5691 5688 5685 5682 5679 5674 5671 5667 5664 5662 5657 5653 5648
5751 5761 5755 5749 5733 5718 5720 5705 5707 5722 5721 5727 5733 5735 5736 5736 5735 5734 5733 5732 5731 5729 5726 5724 5722 5718 5715 5712 5709 5704 5700 5697 5694 5692 5690 5687 5684 5683 5680 5677 5674 5670 5666 5663 5660 5657 5654 5650 5645
5757 5748 5741 5729 5714 5696 5704 5696 5692 5704 5712 5719 5725 5729 5729 5729 5730 5730 5729 5728 5726 5724 5721 5719 5715 5713 5710 5707 5704 5699 5696 5693 5689 5687 5684 5681 5679 5677 5675 5672 5669 5666 5662 5658 5655 5653 5650 5647 5643
5739 5712 5691 5686 5679 5681 5700 5691 5690 5707 5714 5714 5715 5719 5721 5723 5724 5722 5721 5720 5718 5716 5714 5712 5709 5706 5705 5702 5698 5696 5693 5690 5686 5682 5679 5676 5673 5670 5669 5667 5664 5661 5658 5655 5652 5649 5646 5643 5640
5721 5705 5676 5664 5664 5673 5689 5682 5690 5706 5711 5713 5714 5715 5716 5715 5717 5717 5716 5713 5711 5709 5708 5706 5703 5700 5699 5697 5693 5692 5689 5686 5682 5679 5675 5671 5669 5667 5666 5663 5660 5658 5655 5652 5649 5645 5642 5640 5637
5709 5698 5697 5675 5671 5665 5672 5682 5691 5702 5702 5704 5707 5708 5707 5708 5710 5710 5708 5707 5705 5703 5701 5700 5698 5695 5695 5692 5689 5686 5684 5681 5678 5674 5671 5668 5666 5664 5662 5659 5656 5653 5651 5648 5645 5641 5639 5636 5633
5711 5700 5681 5666 5653 5649 5662 5667 5668 5681 5687 5693 5694 5696 5699 5700 5701 5701 5700 5700 5699 5697 5695 5694 5692 5691 5689 5688 5685 5682 5679 5675 5671 5669 5665 5663 5662 5660 5657 5655 5652 5650 5647 5644 5641 5638 5636 5633 5630
5696 5689 5675 5660 5655 5645 5641 5654 5680 5679 5683 5684 5687 5690 5691 5693 5692 5692 5694 5694 5693 5691 5689 5687 5686 5685 5683 5681 5679 5676 5674 5670 5668 5664 5661 5659 5658 5655 5653 5651 5648 5645 5643 5640 5636 5633 5632 5629 5627
5695 5686 5671 5654 5651 5649 5641 5650 5683 5681 5682 5682 5683 5685 5687 5687 5687 5687 5688 5688 5687 5685 5684 5682 5681 5680 5678 5676 5674 5671 5669 5666 5663 5660 5658 5656 5653 5651 5649 5647 5644 5642 5639 5636 5633 5630 5628 5625 5622